Home > Time Zones > World Clock > Weather > Italy > Turin > Past weeks

Flag for Italy Weather past 2 weeks in Turin, Italy

Now
46 °F

Clear.


Feels Like: 44 °F
Forecast: 38 / 57 °F
Wind: 5 mph from Southeast

Location: Torino / Bric Della Croce

Current Time: Dec 19, 2014 at 10:23:45 PM

Latest Report: Dec 19, 2014 at 8:55 PM


Visibility: 10 mi

Pressure: 30.12 "Hg

Humidity: 100%

Dew point: 46 °F

Location of TurinLocation

Historic Weather in Turin — Graph

°F

Turin temperature yesterday

Maximum temperature yesterday: 46 °F (at 10:55 AM)
Minimum temperature yesterday: 43 °F (at 1:55 AM)
Average temperature yesterday: 45 °F

Past Weeks' High & Low Weather Summary

 TemperatureHumidityPressure
High52 °F (Dec 19, 1:55 PM)100% (Dec 4, 8:55 PM)30.18 "Hg (Dec 4, 8:55 PM)
Low37 °F (Dec 9, 12:55 AM)29% (Dec 10, 4:55 PM)29.80 "Hg (Dec 17, 5:55 AM)
Average43 °F82%30.01 "Hg
* Reported Dec 4 8:55 PM — Dec 19 8:55 PM, Turin, Weather by CustomWeather, © 2014

Note: Actual official high and low records may vary slightly from our data, if they occured in-between our weather recording intervals... More about our weather records

Advertising

Turin weather history for previous 24 hours

 ConditionsComfort  
Time TempWeatherWind HumidityBarometerVisibility
8:55 PM
Dec 19
46 °FClear.5 mph100%30.12 "Hg10 mi
7:55 PM48 °FClear.3 mph94%30.12 "Hg10 mi
6:55 PM48 °FClear.3 mph94%30.12 "Hg10 mi
5:55 PM48 °FClear.No wind94%30.12 "Hg10 mi
4:55 PM50 °FClear.5 mph88%30.12 "Hg10 mi
3:55 PM50 °FSunny.8 mph82%30.12 "Hg10 mi
2:55 PM52 °FSunny.9 mph77%30.12 "Hg10 mi
1:55 PM52 °FSunny.8 mph82%30.12 "Hg10 mi
12:55 PM50 °FSunny.10 mph76%30.15 "Hg10 mi
11:55 AM50 °FSunny.10 mph76%30.15 "Hg10 mi
10:55 AM48 °FSunny.9 mph87%30.18 "Hg10 mi
9:55 AM48 °FSunny.3 mph82%30.18 "Hg10 mi
8:55 AM46 °FSunny.5 mph87%30.15 "Hg10 mi
7:55 AM46 °FClear.3 mph87%30.15 "Hg10 mi
6:55 AM46 °FClear.2 mph87%30.15 "Hg10 mi
5:55 AM46 °FClear.No wind76%30.12 "Hg10 mi
4:55 AM45 °FClear.No wind66%30.12 "Hg10 mi
3:55 AM46 °FClear.No wind62%30.12 "Hg10 mi
2:55 AM45 °FClear.3 mph81%30.12 "Hg10 mi
1:55 AM45 °FClear.2 mph81%30.15 "Hg10 mi
12:55 AM45 °FClear.No wind81%30.15 "Hg10 mi
11:55 PM
Dec 18
45 °FClear.2 mph81%30.15 "Hg10 mi
10:55 PM45 °FClear.No wind81%30.15 "Hg10 mi
Weather by CustomWeather, © 2014

See weather overviewHow to use our weather pages